This demonstration page uses our WeatherBlox Daily Observations layout. Learn more.

Left ArrowRight Arrow

Hourly Observations for May 22, 2021

Temp ( °F °C ) Dew Point ( °F °C ) Humidity (%) Winds ( mph kmh ) Pressure ( in mb ) Visibility ( mi km ) Precip ( " mm )
12:53 am 00:53 Clear 62 16.7 60 15.6 93 93 N N/A 30.39 1029 9 14 N/A
1:53 am 01:53 Clear 61 16.1 60 15.6 97 97 N N/A 30.38 1029 7 11 N/A
2:53 am 02:53 Clear with Mist and Fog 60 15.6 59 15 96 96 N N/A 30.37 1028 6 10 N/A
3:53 am 03:53 Clear with Mist and Fog 59 15 58 14.4 96 96 N N/A 30.37 1029 6 10 N/A
4:53 am 04:53 Clear with Mist and Fog 57 13.9 56 13.3 96 96 N N/A 30.39 1029 5 8 N/A
5:53 am 05:53 Clear 57 13.9 55 12.8 93 93 N N/A 30.40 1029 7 11 N/A
6:53 am 06:53 Sunny with Mist and Fog 56 13.3 55 12.8 97 97 N N/A 30.41 1030 6 10 N/A
7:53 am 07:53 Sunny with Mist and Fog 62 16.7 59 15 90 90 N N/A 30.43 1031 6 10 N/A
8:53 am 08:53 Sunny 66 18.9 62 16.7 87 87 N N/A 30.44 1031 7 11 N/A
9:53 am 09:53 Sunny 73 22.8 61 16.1 66 66 N N/A 30.44 1031 9 14 N/A
10:53 am 10:53 Sunny 77 25 57 13.9 50 50 N N/A 30.42 1030 10 16 N/A
11:53 am 11:53 Sunny 79 26.1 59 15 50 50 N N/A 30.41 1030 10 16 N/A
12:53 pm 12:53 Sunny 81 27.2 62 16.7 53 53 VRB 3 6 30.40 1030 10 16 N/A
1:53 pm 13:53 Sunny 81 27.2 58 14.4 45 45 NW 8 13 30.38 1029 10 16 N/A
2:53 pm 14:53 Sunny 82 27.8 58 14.4 44 44 VRB 6 9 30.36 1028 10 16 N/A
3:53 pm 15:53 Sunny 83 28.3 58 14.4 43 43 WSW 5 7 30.34 1027 10 16 N/A
4:53 pm 16:53 Sunny 83 28.3 59 15 44 44 VRB 3 6 30.31 1026 10 16 N/A
5:53 pm 17:53 Sunny 83 28.3 58 14.4 43 43 W 5 7 30.30 1026 10 16 N/A
6:53 pm 18:53 Sunny 83 28.3 58 14.4 43 43 VRB 3 6 30.28 1025 10 16 N/A
7:53 pm 19:53 Sunny 79 26.1 59 15 50 50 W 5 7 30.27 1025 10 16 N/A
8:53 pm 20:53 Clear 70 21.1 62 16.7 76 76 N N/A 30.27 1025 10 16 N/A
9:53 pm 21:53 Clear 66 18.9 61 16.1 84 84 N N/A 30.27 1025 10 16 N/A
10:53 pm 22:53 Clear 64 17.8 61 16.1 90 90 N N/A 30.27 1025 10 16 N/A
11:53 pm 23:53 Clear 63 17.2 60 15.6 90 90 N N/A 30.27 1025 9 14 N/A

Powered by AerisWeather